�������l�o���
Date,Time,MP-1(��Sv/h),MP-2(��Sv/h),MP-3(��Sv/h),MP-4(��Sv/h),MP-5(��Sv/h),MP-6(��Sv/h),MP-7(��Sv/h),MP-8(��Sv/h),����,����(m/s),���J
2019/09/16,00:00,0.740,1.046,0.721,1.291,0.939,0.418,0.733,0.692,�k�k��,3.1,�L
2019/09/16,00:10,0.741,1.044,0.722,1.291,0.937,0.417,0.731,0.692,�k,3.6,��
2019/09/16,00:20,0.740,1.047,0.722,1.292,0.938,0.417,0.732,0.691,�k�k��,3.9,��
2019/09/16,00:30,0.740,1.045,0.723,1.293,0.938,0.420,0.732,0.694,�k�k��,4.1,��
2019/09/16,00:40,0.741,1.049,0.722,1.293,0.941,0.418,0.732,0.694,�k�k��,4.1,��
2019/09/16,00:50,0.742,1.047,0.725,1.290,0.940,0.418,0.731,0.695,�k�k��,4.5,��
2019/09/16,01:00,0.743,1.045,0.724,1.291,0.938,0.419,0.732,0.694,�k�k��,5.5,��
2019/09/16,01:10,0.741,1.047,0.724,1.290,0.938,0.419,0.733,0.692,�k�k��,5.3,��
2019/09/16,01:20,0.742,1.049,0.724,1.292,0.938,0.419,0.732,0.694,�k��,5.4,��
2019/09/16,01:30,0.741,1.047,0.722,1.290,0.939,0.419,0.732,0.693,�k��,4.7,��
2019/09/16,01:40,0.745,1.046,0.724,1.291,0.941,0.417,0.732,0.694,�k�k��,5.4,��
2019/09/16,01:50,0.743,1.050,0.725,1.292,0.942,0.419,0.734,0.693,�k��,5.9,��
2019/09/16,02:00,0.743,1.049,0.723,1.292,0.940,0.417,0.733,0.694,�k��,6.2,��
2019/09/16,02:10,0.743,1.048,0.723,1.294,0.939,0.417,0.732,0.694,�k��,5.4,��
2019/09/16,02:20,0.743,1.047,0.724,1.292,0.939,0.418,0.733,0.694,�k�k��,6.7,�L
2019/09/16,02:30,0.743,1.047,0.723,1.293,0.939,0.417,0.732,0.694,�k�k��,6.0,�L
2019/09/16,02:40,0.741,1.045,0.725,1.293,0.940,0.417,0.734,0.694,�k�k��,6.2,�L
2019/09/16,02:50,0.742,1.044,0.724,1.291,0.940,0.418,0.733,0.695,�k�k��,5.5,�L
2019/09/16,03:00,0.742,1.044,0.723,1.291,0.938,0.419,0.734,0.694,�k�k��,7.1,�L
2019/09/16,03:10,0.742,1.043,0.724,1.291,0.941,0.419,0.733,0.694,�k�k��,6.9,�L
2019/09/16,03:20,0.739,1.043,0.723,1.292,0.937,0.420,0.733,0.694,�k�k��,6.6,�L
2019/09/16,03:30,0.741,1.039,0.722,1.292,0.939,0.419,0.732,0.694,�k�k��,7.2,�L
2019/09/16,03:40,0.740,1.040,0.721,1.290,0.936,0.419,0.731,0.695,�k�k��,7.2,�L
2019/09/16,03:50,0.737,1.038,0.719,1.287,0.935,0.418,0.731,0.695,�k�k��,6.5,�L
2019/09/16,04:00,0.736,1.033,0.716,1.284,0.933,0.418,0.731,0.693,�k�k��,7.1,�L
2019/09/16,04:10,0.737,1.034,0.717,1.286,0.932,0.418,0.731,0.691,�k�k��,7.8,�L
2019/09/16,04:20,0.735,1.036,0.716,1.285,0.931,0.418,0.731,0.691,�k�k��,7.5,�L
2019/09/16,04:30,0.738,1.034,0.716,1.283,0.929,0.418,0.730,0.690,�k�k��,8.2,�L
2019/09/16,04:40,0.736,1.034,0.716,1.284,0.929,0.417,0.730,0.689,�k�k��,8.1,�L
2019/09/16,04:50,0.736,1.036,0.714,1.283,0.930,0.416,0.730,0.689,�k�k��,7.6,�L
2019/09/16,05:00,0.735,1.033,0.717,1.282,0.928,0.416,0.730,0.690,�k�k��,7.1,�L
2019/09/16,05:10,0.734,1.032,0.716,1.282,0.927,0.415,0.729,0.689,�k�k��,7.2,�L
2019/09/16,05:20,0.736,1.034,0.716,1.282,0.929,0.417,0.730,0.689,�k�k��,7.3,�L
2019/09/16,05:30,0.736,1.033,0.717,1.281,0.927,0.414,0.730,0.689,�k�k��,6.6,�L
2019/09/16,05:40,0.737,1.032,0.714,1.282,0.928,0.415,0.727,0.691,�k�k��,7.4,�L
2019/09/16,05:50,0.734,1.029,0.713,1.279,0.923,0.415,0.727,0.689,�k�k��,7.0,�L
2019/09/16,06:00,0.730,1.020,0.709,1.265,0.916,0.414,0.725,0.686,�k�k��,6.7,�L
2019/09/16,06:10,0.730,1.018,0.706,1.261,0.913,0.412,0.723,0.684,�k�k��,6.0,�L
2019/09/16,06:20,0.727,1.011,0.704,1.253,0.903,0.410,0.719,0.680,�k�k��,4.6,�L
2019/09/16,06:30,0.713,0.994,0.694,1.227,0.889,0.406,0.711,0.674,���쓌,5.4,�L
2019/09/16,06:40,0.711,0.984,0.692,1.220,0.890,0.406,0.712,0.674,�k�k��,8.5,�L
2019/09/16,06:50,0.712,0.989,0.695,1.225,0.893,0.408,0.713,0.675,�k�k��,8.5,�L
2019/09/16,07:00,0.718,0.994,0.698,1.227,0.896,0.410,0.716,0.676,�k�k��,7.6,��
2019/09/16,07:10,0.718,0.998,0.697,1.231,0.899,0.410,0.716,0.678,�k�k��,7.1,�L
2019/09/16,07:20,0.720,0.998,0.698,1.232,0.898,0.410,0.717,0.679,�k�k��,5.5,�L
2019/09/16,07:30,0.719,0.991,0.695,1.229,0.895,0.410,0.714,0.677,�k�k��,6.0,�L
2019/09/16,07:40,0.715,0.993,0.695,1.232,0.893,0.410,0.715,0.677,�k�k��,6.2,�L
2019/09/16,07:50,0.712,0.987,0.692,1.226,0.893,0.409,0.714,0.677,�k�k��,7.7,�L
2019/09/16,08:00,0.714,0.990,0.692,1.228,0.892,0.410,0.714,0.676,�k�k��,7.4,�L
2019/09/16,08:10,0.716,0.990,0.694,1.227,0.894,0.410,0.714,0.678,�k�k��,7.8,�L
2019/09/16,08:20,0.717,0.994,0.692,1.234,0.896,0.410,0.717,0.679,�k�k��,7.4,�L
2019/09/16,08:30,0.717,0.994,0.693,1.232,0.896,0.411,0.716,0.678,�k�k��,5.7,�L
2019/09/16,08:40,0.720,0.996,0.695,1.232,0.899,0.410,0.716,0.678,�k�k��,6.6,�L
2019/09/16,08:50,0.718,0.997,0.695,1.235,0.899,0.412,0.718,0.679,�k�k��,6.2,�L
2019/09/16,09:00,0.718,0.998,0.695,1.236,0.899,0.409,0.716,0.678,�k�k��,5.7,�L
2019/09/16,09:10,0.719,0.999,0.696,1.240,0.900,0.411,0.716,0.679,�k�k��,5.6,�L
2019/09/16,09:20,0.718,0.999,0.695,1.238,0.901,0.411,0.716,0.678,�k�k��,5.1,�L
2019/09/16,09:30,0.719,0.996,0.695,1.239,0.901,0.411,0.717,0.679,�k,4.1,�L
2019/09/16,09:40,0.719,0.999,0.695,1.240,0.900,0.411,0.717,0.679,�k�k��,5.2,�L
2019/09/16,09:50,0.718,0.997,0.691,1.238,0.899,0.412,0.717,0.679,�k�k��,4.4,�L
2019/09/16,10:00,0.717,0.995,0.694,1.238,0.899,0.411,0.716,0.680,�k�k��,6.1,�L
2019/09/16,10:10,0.718,0.994,0.692,1.232,0.897,0.411,0.715,0.678,�k�k��,5.0,�L
2019/09/16,10:20,0.715,0.991,0.693,1.233,0.897,0.412,0.715,0.678,�k�k��,5.5,�L
2019/09/16,10:30,0.716,0.990,0.691,1.234,0.896,0.410,0.716,0.679,�k�k��,6.3,�L
2019/09/16,10:40,0.714,0.992,0.690,1.231,0.894,0.411,0.714,0.678,�k�k��,6.0,�L
2019/09/16,10:50,0.713,0.987,0.692,1.229,0.892,0.410,0.715,0.677,�k�k��,6.5,�L
2019/09/16,11:00,0.714,0.987,0.690,1.224,0.891,0.410,0.714,0.676,�k�k��,5.5,�L
2019/09/16,11:10,0.712,0.985,0.687,1.225,0.890,0.409,0.715,0.677,�k�k��,5.9,�L
2019/09/16,11:20,0.709,0.983,0.689,1.220,0.888,0.409,0.712,0.674,�k�k��,7.2,�L
2019/09/16,11:30,0.711,0.981,0.687,1.219,0.887,0.408,0.712,0.675,�k�k��,5.0,�L
2019/09/16,11:40,0.711,0.981,0.687,1.219,0.887,0.408,0.713,0.675,�k�k��,6.4,�L
2019/09/16,11:50,0.709,0.979,0.687,1.216,0.883,0.408,0.711,0.676,�k�k��,7.6,�L
2019/09/16,12:00,0.708,0.978,0.686,1.216,0.883,0.409,0.710,0.675,�k�k��,5.9,�L
2019/09/16,12:10,0.708,0.975,0.684,1.211,0.879,0.407,0.710,0.673,�k�k��,5.0,�L
2019/09/16,12:20,0.706,0.976,0.687,1.214,0.879,0.408,0.711,0.674,�k�k��,2.7,�L
2019/09/16,12:30,0.709,0.978,0.683,1.215,0.880,0.408,0.711,0.673,�k�k��,6.6,�L
2019/09/16,12:40,0.709,0.977,0.685,1.216,0.879,0.407,0.710,0.675,�k�k��,5.3,�L
2019/09/16,12:50,0.710,0.977,0.685,1.215,0.881,0.408,0.711,0.674,�k�k��,4.9,�L
2019/09/16,13:00,0.712,0.978,0.684,1.217,0.881,0.408,0.711,0.675,�k�k��,5.0,�L
2019/09/16,13:10,0.710,0.981,0.684,1.216,0.882,0.409,0.712,0.675,�k�k��,4.7,�L
2019/09/16,13:20,0.710,0.982,0.687,1.221,0.884,0.409,0.711,0.676,�k�k��,6.2,�L
2019/09/16,13:30,0.711,0.979,0.686,1.221,0.883,0.409,0.711,0.675,�k�k��,6.4,�L
2019/09/16,13:40,0.712,0.979,0.687,1.220,0.887,0.409,0.712,0.676,�k�k��,6.6,�L
2019/09/16,13:50,0.713,0.982,0.689,1.221,0.887,0.408,0.714,0.678,�k�k��,6.5,�L
2019/09/16,14:00,0.712,0.982,0.689,1.222,0.882,0.410,0.713,0.676,�k,6.7,�L
2019/09/16,14:10,0.712,0.983,0.689,1.222,0.886,0.409,0.715,0.677,�k,7.1,�L
2019/09/16,14:20,0.713,0.986,0.688,1.224,0.885,0.410,0.713,0.677,�k�k��,8.2,�L
2019/09/16,14:30,0.713,0.984,0.688,1.224,0.887,0.410,0.713,0.678,�k�k��,7.4,�L
2019/09/16,14:40,0.715,0.988,0.689,1.227,0.889,0.411,0.713,0.678,�k�k��,7.2,�L
2019/09/16,14:50,0.715,0.988,0.690,1.228,0.887,0.409,0.715,0.678,�k�k��,7.2,�L
2019/09/16,15:00,0.715,0.988,0.689,1.229,0.886,0.410,0.715,0.678,�k�k��,7.7,�L
2019/09/16,15:10,0.714,0.990,0.687,1.229,0.889,0.411,0.715,0.678,�k�k��,8.0,�L
2019/09/16,15:20,0.712,0.989,0.689,1.233,0.890,0.410,0.715,0.679,�k�k��,7.6,�L
2019/09/16,15:30,0.714,0.991,0.691,1.231,0.890,0.411,0.714,0.678,�k�k��,6.5,�L
2019/09/16,15:40,0.711,0.990,0.688,1.231,0.887,0.411,0.712,0.677,�k�k��,7.0,�L
2019/09/16,15:50,0.714,0.990,0.688,1.230,0.889,0.409,0.714,0.677,�k�k��,7.5,�L
2019/09/16,16:00,0.713,0.990,0.689,1.230,0.888,0.411,0.716,0.678,�k,7.0,�L
2019/09/16,16:10,0.715,0.990,0.690,1.231,0.888,0.410,0.713,0.678,�k�k��,8.1,�L
2019/09/16,16:20,0.713,0.992,0.689,1.230,0.890,0.411,0.715,0.677,�k�k��,9.0,�L
2019/09/16,16:30,0.715,0.988,0.690,1.234,0.890,0.411,0.715,0.677,�k,8.2,��
2019/09/16,16:40,0.717,0.993,0.689,1.231,0.891,0.410,0.717,0.680,�k,7.6,��
2019/09/16,16:50,0.716,0.993,0.691,1.232,0.891,0.410,0.716,0.678,�k,8.5,��
2019/09/16,17:00,0.716,0.993,0.690,1.234,0.892,0.410,0.715,0.679,�k�k��,9.1,��
2019/09/16,17:10,0.717,0.993,0.691,1.234,0.894,0.411,0.718,0.679,�k�k��,9.0,�L
2019/09/16,17:20,0.717,0.993,0.691,1.237,0.892,0.411,0.716,0.680,�k�k��,9.5,�L
2019/09/16,17:30,0.716,0.995,0.691,1.236,0.893,0.411,0.718,0.679,�k�k��,8.9,��
2019/09/16,17:40,0.715,0.993,0.692,1.237,0.892,0.409,0.716,0.679,�k�k��,8.2,��
2019/09/16,17:50,0.716,0.993,0.693,1.237,0.891,0.408,0.717,0.680,�k,6.9,��
2019/09/16,18:00,0.716,0.994,0.694,1.233,0.897,0.409,0.716,0.680,�k�k��,6.7,��
2019/09/16,18:10,0.718,0.995,0.694,1.237,0.894,0.409,0.717,0.680,�k�k��,7.6,��
2019/09/16,18:20,0.717,0.997,0.694,1.238,0.894,0.408,0.716,0.680,�k,6.9,��
2019/09/16,18:30,0.717,0.998,0.693,1.239,0.895,0.411,0.717,0.681,�k,7.4,��
2019/09/16,18:40,0.717,0.997,0.696,1.240,0.897,0.409,0.718,0.681,�k,6.8,��
2019/09/16,18:50,0.717,0.997,0.694,1.239,0.896,0.410,0.717,0.681,�k,6.9,��
2019/09/16,19:00,0.719,0.998,0.695,1.236,0.897,0.413,0.717,0.681,�k,6.7,��
2019/09/16,19:10,0.717,0.998,0.696,1.243,0.896,0.412,0.719,0.681,�k�k��,6.4,��
2019/09/16,19:20,0.718,0.999,0.697,1.238,0.899,0.411,0.719,0.680,�k�k��,6.7,��
2019/09/16,19:30,0.719,1.000,0.695,1.241,0.900,0.411,0.717,0.681,�k�k��,6.8,��
2019/09/16,19:40,0.720,1.001,0.698,1.240,0.899,0.410,0.718,0.681,�k�k��,6.6,��
2019/09/16,19:50,0.720,1.000,0.696,1.242,0.899,0.411,0.719,0.681,�k�k��,7.1,��
2019/09/16,20:00,0.719,1.000,0.696,1.241,0.898,0.411,0.718,0.683,�k�k��,6.6,��
2019/09/16,20:10,0.720,1.000,0.697,1.244,0.902,0.413,0.719,0.682,�k�k��,6.1,��
2019/09/16,20:20,0.719,1.002,0.697,1.240,0.900,0.412,0.718,0.682,�k�k��,6.3,��
2019/09/16,20:30,0.720,1.001,0.697,1.242,0.901,0.412,0.718,0.683,�k�k��,7.1,��
2019/09/16,20:40,0.721,1.002,0.698,1.242,0.901,0.413,0.718,0.682,�k�k��,6.3,��
2019/09/16,20:50,0.722,1.002,0.697,1.243,0.900,0.412,0.719,0.683,�k��,5.9,��
2019/09/16,21:00,0.720,1.000,0.699,1.244,0.900,0.412,0.721,0.684,�k��,5.8,��
2019/09/16,21:10,0.723,1.005,0.697,1.243,0.903,0.413,0.720,0.682,�k��,5.4,��
2019/09/16,21:20,0.723,1.005,0.699,1.242,0.900,0.413,0.720,0.682,�k�k��,4.8,��
2019/09/16,21:30,0.721,1.006,0.700,1.244,0.902,0.412,0.719,0.685,�k��,5.0,��
2019/09/16,21:40,0.723,1.004,0.699,1.244,0.901,0.414,0.718,0.683,�k��,4.4,��
2019/09/16,21:50,0.723,1.004,0.698,1.242,0.901,0.413,0.719,0.684,�k�k��,4.3,��
2019/09/16,22:00,0.723,1.004,0.699,1.245,0.902,0.414,0.721,0.685,�k�k��,4.4,��
2019/09/16,22:10,0.721,1.006,0.699,1.240,0.904,0.413,0.720,0.683,�k�k��,4.5,��
2019/09/16,22:20,0.723,1.006,0.697,1.244,0.904,0.413,0.721,0.684,�k�k��,4.7,��
2019/09/16,22:30,0.723,1.003,0.699,1.244,0.900,0.414,0.721,0.684,�k�k��,4.3,��
2019/09/16,22:40,0.721,1.005,0.696,1.245,0.903,0.412,0.720,0.683,�k�k��,4.6,��
2019/09/16,22:50,0.720,1.002,0.699,1.244,0.904,0.412,0.722,0.683,�k�k��,4.7,��
2019/09/16,23:00,0.723,1.007,0.699,1.242,0.902,0.413,0.720,0.685,�k,4.2,��
2019/09/16,23:10,0.722,1.006,0.699,1.243,0.902,0.412,0.720,0.683,�k,4.3,��
2019/09/16,23:20,0.723,1.006,0.700,1.245,0.902,0.414,0.721,0.682,�k�k��,4.8,��
2019/09/16,23:30,0.723,1.005,0.698,1.245,0.905,0.413,0.720,0.684,�k�k��,5.5,��
2019/09/16,23:40,0.721,1.005,0.701,1.244,0.903,0.411,0.723,0.684,�k��,5.0,��
2019/09/16,23:50,0.722,1.004,0.701,1.243,0.903,0.416,0.721,0.683,�k��,3.7,��
